Flag for United Kingdom Weather past 2 weeks in Guildford, England, United Kingdom

Now
73 °F

Passing clouds.


Feels Like: 77 °F
Forecast: 56 / 74 °F
Wind: 5 mph from West

Location: Farnborough Airport

Current Time: Jul 30, 2014 at 8:45:14 PM

Latest Report: Jul 30, 2014 at 8:20 PM


Visibility: N/A

Pressure: 29.98 "Hg

Humidity: 50%

Dew point: 54 °F

Location of GuildfordLocation

Historic Weather in Guildford — Graph

°F

Guildford temperature yesterday

Maximum temperature yesterday: 79 °F (at 4:50 PM)
Minimum temperature yesterday: 59 °F (at 6:50 AM)
Average temperature yesterday: 72 °F

Past Weeks' High & Low Weather Summary

 TemperatureHumidityPressure
High84 °F (Jul 24, 3:20 PM)100% (Jul 17, 6:50 AM)30.21 "Hg (Jul 17, 6:50 AM)
Low57 °F (Jul 16, 6:50 AM)32% (Jul 29, 5:20 PM)29.71 "Hg (Jul 19, 5:20 PM)
Average72 °F62%30.02 "Hg
* Reported Jul 15 7:20 PM — Jul 30 7:20 PM, Guildford, Weather by CustomWeather, © 2014

Note: Actual official high and low records may vary slightly from our data, if they occured in-between our weather recording intervals... More about our weather records

Advertising

Guildford weather history for previous 24 hours

 ConditionsComfort  
Time TempWeatherWind HumidityBarometerVisibility
7:20 PM
Jul 30
73 °FSunny.6 mph50%29.98 "Hg10 mi
6:50 PM77 °FSunny.5 mph44%29.98 "Hg10 mi
6:20 PM77 °FPassing clouds.7 mph42%29.98 "HgN/A
5:50 PM77 °FPassing clouds.8 mph42%29.98 "HgN/A
5:20 PM75 °FPassing clouds.8 mph47%29.98 "HgN/A
4:50 PM75 °FPassing clouds.6 mph47%29.98 "HgN/A
4:20 PM75 °FPassing clouds.8 mph44%29.98 "HgN/A
3:50 PM75 °FPassing clouds.6 mph47%29.98 "HgN/A
3:20 PM75 °FPassing clouds.9 mph44%30.01 "HgN/A
2:50 PM73 °FPassing clouds.8 mph47%30.01 "HgN/A
2:20 PM72 °FPassing clouds.10 mph50%30.01 "HgN/A
1:50 PM73 °FPassing clouds.8 mph47%30.01 "HgN/A
1:20 PM72 °FPassing clouds.9 mph50%30.01 "HgN/A
12:50 PM72 °FPassing clouds.10 mph47%30.01 "HgN/A
12:20 PM72 °FPassing clouds.8 mph50%30.04 "HgN/A
11:50 AM68 °FPassing clouds.8 mph53%30.04 "HgN/A
11:20 AM70 °FScattered clouds.8 mph53%30.04 "HgN/A
10:50 AM66 °FScattered clouds.9 mph56%30.04 "HgN/A
10:20 AM66 °FScattered clouds.7 mph56%30.04 "HgN/A
9:50 AM66 °FScattered clouds.7 mph60%30.04 "HgN/A
9:20 AM64 °FPassing clouds.10 mph60%30.04 "HgN/A
8:50 AM63 °FPassing clouds.8 mph68%30.04 "HgN/A
8:20 AM63 °FPassing clouds.7 mph73%30.04 "HgN/A
7:50 AM59 °FPassing clouds.5 mph82%30.04 "HgN/A
7:20 AM59 °FPassing clouds.5 mph82%30.01 "HgN/A
8:50 PM
Jul 29
72 °FSunny.8 mph53%29.98 "Hg10 mi
8:20 PM73 °FSunny.8 mph50%29.95 "Hg10 mi
Weather by CustomWeather, © 2014

See weather overviewHow to use our weather pages